Powrót do katalogu

STARLINK-6092

AktywnyŁącznośćVLEO
NORAD 56121·PAYLOAD·🇺🇸 United States

Wystrzelony Mar 29, 2023 z Cape Canaveral Space Force Station

Loading…

Następne Przeloty (najbliższe 24 godziny)

TLE

ŚwieżeSource: CelesTrak SupGP

Epoka: Sep 14, 2026, 13:43 UTC

1 56121C 23046AE  26257.57201389  .00003882  00000+0  14065-3 0  2573
2 56121  43.0005 160.4924 0001220 246.6622 154.7572 15.27567800    11

Śledź STARLINK-6092 w czasie rzeczywistym z AllMySat

Download on the App Store